Location: Clifton Park
(41.4873°N, 81.8024°W)
Time: 15:59:48
(UTC+00:00)

STARLINK-44 - Pass Details

Date: 21 January 2020
Orbit: 528 x 531 km, 53.0° (Epoch: 19 February)

Event Time Altitude Azimuth Distance (km) Brightness Sun altitude
Exits shadow 10:56:34 56° 227° (SW) 630 3.6 -20.7°
Maximum altitude 10:57:22 88° 141° (SE) 535 3.4 -20.6°
Drops below altitude 10° 11:01:24 10° 53° (NE) 1,781 6.8 -19.8°
Sets 11:03:38 0° 53° (NE) 2,674 7.8 -19.4°
